Location: Angwan Shehu
(11.2514°N, 7.4613°E)
Time: 13:32:49
(UTC+00:00)

ATLAS 2AS CENTAUR R/B - Pass Details

Date: 14 November 2019
Orbit: 926 x 1286 km, 63.7° (Epoch: 09 December)

Event Time Altitude Azimuth Distance (km) Brightness Sun altitude
Rises 19:23:19 0° 198° (SSW) 3,976 6.1 -33.9°
Reaches altitude 10° 19:25:57 10° 196° (SSW) 3,064 5.4 -34.5°
Enters shadow 19:30:51 46° 182° (S) 1,578 3.5 -35.6°
